Theta_e
350 351 351 352 350 346 350 349 348 348 348 348 350 351 352 355 355 354 353 350 348 342 337 331 325 322 326 325 325 325 324 323 322 319 316 314 308 309 314 310 310 311 314
349 350 351 352 352 352 352 351 348 348 349 348 349 350 353 352 354 355 355 351 350 344 339 335 331 327 324 324 325 325 323 322 320 317 312 313 312 313 309 308 312 312 313
350 351 351 352 352 352 352 352 351 349 350 350 350 350 350 351 352 351 356 355 352 348 343 339 334 331 329 326 323 323 320 317 315 311 313 314 314 314 313 313 311 313 313
350 351 351 352 352 352 351 352 352 347 348 350 351 352 351 352 352 353 355 355 352 349 347 343 338 333 331 328 324 321 318 314 312 313 313 314 314 315 313 312 313 314 314
351 351 351 351 351 351 352 351 350 348 348 348 349 352 352 352 351 353 354 355 354 351 347 345 342 338 334 329 326 321 314 312 311 312 313 315 314 314 314 314 313 314 314
351 352 352 352 352 351 351 350 350 348 348 346 347 349 351 349 347 344 345 353 355 354 350 345 344 343 336 330 326 319 314 313 314 313 311 314 317 315 313 313 313 314 314
350 351 352 352 352 352 351 350 351 350 349 348 348 348 349 349 345 343 343 347 353 353 352 349 343 344 340 331 328 320 315 316 314 316 313 315 317 315 313 313 314 315 314
349 351 351 352 352 352 351 351 350 351 351 350 350 349 350 351 347 345 345 347 352 353 351 349 345 346 342 337 328 322 319 318 317 317 312 314 317 315 311 312 314 314 313
350 350 350 351 352 351 351 351 350 351 352 352 351 352 352 352 349 346 348 350 351 352 350 348 348 348 348 343 331 324 321 320 318 317 306 305 309 307 309 312 313 314 312
351 351 350 351 351 351 351 351 351 351 351 353 353 353 353 353 352 348 350 351 352 352 349 349 348 351 352 345 335 326 321 321 318 312 303 305 307 310 310 309 313 313 311
352 352 351 351 352 351 352 352 352 353 352 354 353 354 354 354 354 351 351 352 353 352 351 349 345 350 352 349 341 325 323 323 319 307 307 310 312 313 312 312 314 312 311
352 352 352 352 352 352 353 353 353 353 354 354 355 355 354 355 353 353 350 350 351 353 353 351 349 344 351 351 337 325 325 322 314 309 310 312 312 313 312 312 311 309 309
351 352 352 353 353 352 353 353 354 354 354 354 354 355 354 354 355 352 350 350 351 352 352 353 349 347 348 338 328 325 324 320 311 309 310 312 313 313 311 310 309 307 307
352 353 352 353 353 353 353 354 354 354 354 354 354 354 354 355 355 354 351 351 352 351 351 349 345 342 339 333 327 325 323 319 310 309 311 312 312 312 312 311 310 309 309
352 352 353 353 352 354 354 354 354 354 354 354 354 354 354 354 355 352 351 353 352 349 347 338 334 332 329 326 324 325 322 315 310 307 310 312 312 312 312 309 307 308 308
351 351 352 352 353 353 354 355 353 353 353 352 352 352 354 353 353 353 352 352 352 351 340 333 327 326 328 327 323 320 318 314 310 307 308 312 312 312 311 310 308 308 308
352 351 351 350 352 353 353 354 354 353 351 351 351 352 351 351 353 353 353 353 353 349 339 337 330 329 327 325 323 319 314 313 315 310 310 313 313 311 309 309 308 307 307
349 349 351 351 351 352 353 353 354 353 354 354 351 351 351 351 352 352 352 351 342 337 334 334 330 330 327 325 323 321 316 314 313 310 311 313 313 311 310 309 307 307 307
345 349 350 349 351 351 352 352 353 353 354 355 356 351 351 352 352 351 351 346 342 335 335 332 332 330 327 326 324 320 317 316 314 312 313 313 312 309 310 308 307 305 304
338 341 348 356 355 353 352 355 356 357 358 359 360 359 352 351 348 346 344 339 338 338 336 334 332 329 327 325 323 319 318 315 316 312 314 313 311 308 309 308 306 307 305
331 334 339 343 347 352 358 363 364 363 363 363 363 361 358 352 354 347 343 343 337 336 335 332 330 328 324 323 322 319 319 316 316 312 314 312 309 309 308 306 307 306 304
325 327 331 334 334 336 339 353 358 362 363 362 361 361 357 352 353 353 346 340 341 337 334 333 331 328 325 324 321 317 316 316 313 313 313 310 309 308 307 306 306 305 304
318 321 325 324 325 327 329 334 340 347 355 359 358 357 345 341 344 346 346 340 339 340 338 335 330 327 325 321 318 317 318 315 313 313 311 309 308 307 306 306 305 304 304
315 315 317 319 318 321 321 322 324 327 334 348 351 352 349 346 345 345 340 335 338 338 337 333 328 327 326 319 318 319 318 316 314 312 310 310 308 305 306 306 305 304 302
310 310 311 313 314 315 316 317 317 318 321 326 331 332 332 332 333 333 331 332 333 330 327 326 328 326 326 323 319 316 315 313 313 311 311 309 307 306 306 305 304 304 302
305 307 307 308 308 310 311 311 311 311 312 315 320 324 324 325 326 325 325 327 327 326 325 321 322 325 325 319 317 315 312 311 312 311 310 308 306 305 305 305 304 303 302
Wind_Speed
32 32 30 27 28 30 25 24 24 20 18 16 13 12 11 10 10 12 11 10 10 10 9 9 7 7 6 5 5 5 6 6 10 9 8 9 12 10 9 10 9 9 11
35 32 34 31 28 25 25 24 25 24 21 20 18 16 14 13 12 14 14 12 13 12 10 11 10 8 9 9 8 8 8 7 8 9 8 7 10 9 11 11 7 8 8
35 34 32 30 29 29 26 25 25 26 23 21 21 20 19 16 15 17 17 15 16 15 13 14 13 13 11 10 10 8 9 7 7 8 10 7 8 9 9 10 10 10 10
35 35 34 33 32 32 30 27 28 29 27 25 24 23 22 19 18 18 19 19 18 18 18 18 17 17 14 13 12 13 12 10 8 9 11 11 9 7 8 9 10 11 15
36 36 36 35 34 33 29 30 29 30 29 28 27 24 23 21 20 20 20 21 20 21 20 21 21 20 20 20 15 15 16 14 10 9 10 11 10 8 7 5 11 14 14
35 36 35 34 33 32 32 32 30 31 29 30 28 25 24 24 25 27 24 21 22 23 21 22 22 23 25 25 22 21 17 14 11 9 10 10 11 11 9 8 9 10 9
37 36 35 34 33 33 33 31 31 30 28 29 27 26 26 25 30 30 27 27 24 25 24 23 24 27 26 21 23 21 19 17 16 11 12 12 10 9 8 11 10 9 12
37 36 36 35 34 33 31 31 33 29 28 29 27 27 26 25 29 28 25 27 26 26 27 27 27 27 29 26 21 18 21 22 19 20 16 17 14 11 12 11 11 12 14
35 36 36 35 34 33 32 32 32 30 27 26 28 25 25 25 28 26 23 24 24 26 27 29 34 32 34 31 30 28 25 19 21 20 22 17 15 14 13 9 11 11 14
35 35 35 34 34 32 33 33 32 31 30 26 24 25 26 25 25 25 22 22 23 25 31 33 36 37 38 36 36 32 24 20 19 19 17 15 14 12 11 12 11 12 15
32 31 31 32 33 34 32 31 29 28 26 25 25 23 24 24 24 26 22 24 27 27 30 26 26 36 40 38 35 29 26 19 17 14 9 8 7 8 8 9 10 10 14
29 27 28 30 31 29 28 26 26 25 24 25 23 22 22 21 25 26 24 29 35 30 28 24 25 29 35 38 35 32 25 17 14 8 8 9 7 7 7 8 10 13 13
26 28 29 28 28 27 25 26 23 24 25 23 23 23 22 21 21 25 24 30 33 39 30 26 25 28 29 31 33 28 21 20 12 10 11 8 6 6 7 7 10 13 14
24 25 26 27 27 27 28 25 26 25 24 24 23 23 21 20 21 19 25 27 33 35 34 32 25 25 21 20 28 27 25 25 20 16 8 6 5 5 6 7 8 10 10
22 22 24 25 24 23 27 26 28 30 29 26 26 24 22 23 23 25 21 19 19 21 18 19 18 16 17 19 24 31 31 28 23 18 11 10 9 6 9 8 8 8 9
21 22 25 24 23 25 24 23 28 29 27 34 32 26 22 26 25 24 24 21 21 26 14 13 14 17 25 27 24 25 33 30 26 21 18 12 10 9 9 8 8 7 9
18 17 18 21 21 20 22 21 19 19 31 35 34 34 35 34 26 24 25 24 24 30 19 17 18 24 26 28 27 28 26 31 29 25 17 13 10 9 10 9 8 7 7
11 14 14 16 19 18 18 19 18 16 15 14 19 32 35 35 36 35 34 27 22 23 22 20 23 23 25 27 29 25 21 25 28 24 18 15 13 10 9 9 8 7 6
15 6 11 14 13 15 14 14 16 15 14 12 10 11 15 20 24 28 29 25 20 22 28 25 28 26 24 24 25 23 27 25 26 26 18 17 14 14 11 9 6 6 5
23 21 14 2 8 10 13 13 14 14 11 10 9 9 7 9 10 13 18 22 20 20 23 25 26 27 24 25 24 24 24 24 29 24 19 19 18 18 14 11 7 5 5
21 21 18 13 14 13 7 6 8 9 8 7 6 7 12 10 10 11 15 19 20 18 17 19 18 23 23 23 22 25 26 28 30 23 21 17 18 13 12 10 7 6 2
23 18 17 14 14 17 18 13 9 10 9 8 6 6 12 12 12 13 12 15 17 18 17 19 19 21 21 22 24 24 29 32 27 22 20 20 17 15 12 10 8 6 1
22 20 17 15 14 19 19 16 15 14 11 7 7 7 5 6 9 11 11 10 13 15 16 17 18 18 18 20 22 29 35 32 25 23 21 19 17 16 14 11 10 7 2
21 23 21 21 27 26 20 16 17 18 19 13 11 9 8 7 9 9 9 9 12 13 14 16 18 18 20 23 26 28 32 22 21 23 25 17 17 16 14 12 11 7 5
21 19 18 18 18 15 13 14 17 19 22 22 18 14 12 9 8 8 9 9 10 10 11 13 16 19 21 23 25 28 21 24 23 27 22 18 18 18 15 13 11 8 6
23 20 18 18 18 17 17 19 21 24 24 24 24 21 19 15 10 7 7 8 10 11 9 10 14 19 21 21 25 27 25 26 29 27 22 22 20 18 15 14 13 10 8
Wind_Direction
206 207 212 216 220 223 221 225 229 231 233 232 232 231 237 240 245 242 242 247 250 248 248 250 253 251 239 251 256 252 255 257 273 292 287 290 288 286 279 289 291 300 308
208 208 213 216 219 221 221 222 226 230 232 232 230 231 234 240 245 244 238 239 249 250 242 247 244 240 248 251 247 243 250 242 261 286 295 299 291 290 294 299 275 286 294
205 209 213 214 216 223 224 224 226 228 229 230 231 231 236 237 242 247 243 240 250 253 245 244 244 241 240 241 247 251 253 247 257 268 281 289 299 306 309 304 298 302 309
204 209 211 214 216 222 223 224 228 230 230 232 235 234 237 238 243 244 240 242 245 251 248 247 245 243 244 247 245 245 242 235 244 254 270 275 271 277 291 291 307 309 310
205 208 212 214 216 221 221 224 228 233 234 234 237 238 239 238 243 238 236 239 240 246 249 248 246 249 250 247 237 237 238 238 228 245 263 273 281 280 274 295 300 308 315
204 210 212 213 215 217 220 225 227 233 235 238 237 237 238 240 244 245 243 240 240 243 242 246 244 249 246 244 246 245 248 238 246 261 279 280 290 288 291 287 286 302 314
203 207 210 211 214 216 218 221 225 227 232 237 238 239 240 241 250 257 256 246 245 245 243 241 239 243 246 240 244 241 242 245 243 248 263 265 267 266 276 287 285 286 288
203 206 208 210 213 215 216 217 223 225 227 232 238 241 244 245 254 262 260 253 246 245 245 244 242 243 243 237 226 224 227 228 232 241 244 253 249 250 262 271 277 284 293
204 205 207 209 213 213 215 217 221 221 225 229 237 240 241 247 253 262 259 246 246 246 247 244 242 239 243 241 232 224 220 228 241 235 244 245 252 260 263 258 273 281 301
204 206 206 208 213 215 217 218 221 222 227 230 233 236 244 247 251 261 254 238 244 244 245 243 244 243 245 241 235 221 208 228 235 246 246 239 241 241 237 251 266 284 297
205 207 207 207 209 215 219 219 219 220 225 227 232 236 242 246 248 253 252 237 241 245 250 248 240 245 242 244 242 224 229 237 240 247 251 257 254 254 255 249 243 263 281
201 203 208 209 212 217 217 219 220 221 223 227 229 237 240 242 244 239 251 252 246 242 251 252 251 253 254 246 234 226 232 232 231 229 229 243 249 252 258 248 263 278 277
195 200 206 210 212 214 213 216 219 222 228 233 232 236 239 236 237 237 250 258 258 247 253 261 257 259 268 243 227 221 218 221 207 206 234 234 231 240 256 276 289 293 292
200 204 207 208 208 213 216 219 221 224 227 231 234 238 241 240 238 234 244 253 258 257 257 252 253 248 255 238 217 217 218 217 215 212 227 223 227 262 265 255 275 288 296
208 210 214 217 212 217 222 220 217 221 219 221 227 233 236 241 241 239 248 246 247 264 255 220 229 221 209 208 208 209 211 212 213 214 215 220 216 222 249 253 272 286 283
214 212 216 217 213 214 221 229 233 233 237 235 237 240 248 252 253 258 269 270 268 265 238 214 209 211 213 211 202 202 209 208 210 208 215 215 212 215 228 246 259 271 284
237 232 225 223 222 219 219 222 229 234 239 243 248 251 252 254 257 259 263 264 259 250 234 219 205 221 218 215 210 201 203 205 211 209 206 206 206 210 214 246 256 268 279
230 240 239 231 228 224 225 227 228 229 236 243 252 251 254 256 257 257 258 254 237 235 230 221 216 221 219 217 215 212 198 205 206 203 201 202 198 198 206 227 251 270 278
35 3 244 241 238 231 228 231 235 226 223 237 236 257 251 254 258 256 254 238 231 230 230 224 227 224 222 218 214 202 198 201 199 197 197 193 179 193 216 220 228 250 264
9 11 28 22 247 227 226 229 228 225 225 216 214 243 238 250 253 251 240 234 230 235 236 233 234 231 225 218 214 202 196 191 199 197 196 188 179 193 204 200 194 226 262
5 6 13 31 28 12 345 241 246 241 226 225 236 247 237 244 252 239 241 238 236 239 238 239 224 232 223 221 214 205 195 192 195 196 195 177 172 200 204 186 179 192 242
9 10 13 3 46 35 3 342 322 286 268 253 245 238 251 243 247 248 241 244 245 244 243 243 242 235 230 221 212 197 192 194 194 194 188 172 177 190 193 181 175 183 180
8 5 15 4 12 59 32 354 348 341 311 294 311 290 280 263 259 257 259 255 251 247 251 251 244 234 225 211 206 202 196 196 192 187 177 168 178 182 180 180 172 176 152
23 14 10 9 21 30 27 3 359 4 3 353 351 325 317 303 281 269 257 253 252 251 248 242 234 229 217 208 209 204 198 191 183 180 173 168 180 184 174 176 168 159 150
36 19 14 14 20 26 23 21 16 14 15 15 10 1 353 344 321 307 291 271 259 247 239 231 227 222 218 214 203 193 192 189 175 173 175 172 177 180 174 170 161 157 149
33 15 7 12 11 13 19 22 21 19 15 9 8 4 2 354 341 347 307 281 264 249 242 234 228 220 216 210 203 188 193 196 179 177 171 169 175 174 172 164 161 158 151